This demonstration page uses our WeatherBlox Daily Observations layout. Learn more.

Left ArrowRight Arrow

39.92423, -83.80882

Hourly Observations for April 8, 2022

Temp ( °F °C ) Dew Point ( °F °C ) Humidity (%) Winds ( mph kmh ) Pressure ( in mb ) Visibility ( mi km ) Precip ( " mm )
12:56 am 00:56 Clear 36 2.2 36 2.2 100 100 S 5 7 29.72 1006 10 16 0.00 0.00
1:56 am 01:56 Cloudy 37 2.8 37 2.8 100 100 S 5 7 29.70 1006 10 16 0.00 0.00
2:56 am 02:56 Cloudy 37 2.8 37 2.8 100 100 S 5 7 29.68 1005 10 16 0.00 0.00
3:56 am 03:56 Mostly Clear 35 1.7 35 1.7 100 100 SSW 5 7 29.67 1005 10 16 0.00 0.00
4:56 am 04:56 Clear 34 1.1 34 1.1 100 100 SSW 7 11 29.66 1004 10 16 0.00 0.00
5:56 am 05:56 Clear 33 0.6 33 0.6 100 100 S 6 9 29.66 1004 10 16 0.00 0.00
6:56 am 06:56 Mostly Cloudy 34 1.1 34 1.1 100 100 SSW 6 9 29.66 1004 10 16 0.00 0.00
7:56 am 07:56 Mostly Cloudy 35 1.7 34 1.1 96 96 SSW 8 13 29.66 1005 10 16 0.00 0.00
8:09 am 08:09 Cloudy 36 2 34 1 93 93 SSW 7 11 29.68 1005 10 16 0.00 0.00
8:29 am 08:29 Cloudy 37 3 34 1 87 87 SSW 8 13 29.68 1005 10 16 0.00 0.00
8:56 am 08:56 Mostly Cloudy 38 3.3 34 1.1 86 86 SW 10 17 29.67 1005 10 16 0.00 0.00
9:42 am 09:42 Mostly Cloudy 39 4 36 2 87 87 SW 15 24 29.68 1005 10 16 0.00 0.00
9:56 am 09:56 Cloudy 40 4.4 35 1.7 83 83 WSW 14 22 29.66 1005 10 16 0.00 0.00
10:56 am 10:56 Cloudy 41 5 36 2.2 82 82 WSW 15 24 29.67 1005 10 16 0.00 0.00
11:56 am 11:56 Cloudy 42 5.6 36 2.2 79 79 WSW 16 26 29.68 1005 10 16 0.00 0.00
12:36 pm 12:36 Cloudy with Light Rain 43 6 36 2 76 76 WSW 10 17 29.68 1005 10 16 0.00 0.00
12:48 pm 12:48 Cloudy with Light Rain 43 6 36 2 76 76 W 16 26 29.68 1005 10 16 0.00 0.00
12:56 pm 12:56 Cloudy with Light Rain 41 5 41 5 100 100 W 16 26 29.68 1005 10 16 0.00 0.00
1:51 pm 13:51 Mostly Cloudy with Rain 39 4 37 3 93 93 NW 14 22 29.69 1005 9 14 0.00 0.00
1:56 pm 13:56 Mostly Cloudy with Light Rain 40 4.4 40 4.4 100 100 W 16 26 29.67 1005 9 14 0.00 0.00
2:18 pm 14:18 Cloudy 43 6 39 4 87 87 W 14 22 29.69 1005 10 16 0.00 0.00
2:56 pm 14:56 Mostly Cloudy 46 7.8 38 3.3 73 73 W 16 26 29.67 1005 10 16 0.00 0.00
3:56 pm 15:56 Cloudy 43 6.1 35 1.7 74 74 W 20 31 29.67 1005 10 16 0.00 0.00
4:56 pm 16:56 Mostly Sunny 46 7.8 35 1.7 66 66 W 23 37 29.66 1005 10 16 0.00 0.00
5:56 pm 17:56 Partly Cloudy 45 7.2 36 2.2 71 71 W 16 26 29.68 1005 10 16 0.00 0.00
6:56 pm 18:56 Partly Cloudy 44 6.7 35 1.7 71 71 WSW 12 19 29.70 1006 10 16 0.00 0.00
7:56 pm 19:56 Cloudy 40 4.4 38 3.3 93 93 SW 9 15 29.71 1006 10 16 0.00 0.00
8:35 pm 20:35 Cloudy with Light Rain 39 4 39 4 100 100 WNW 13 20 29.74 1007 10 16 0.00 0.00
8:56 pm 20:56 Cloudy 39 3.9 39 3.9 100 100 WSW 6 9 29.74 1007 10 16 0.00 0.00
9:30 pm 21:30 Cloudy with Light Rain 39 4 39 4 100 100 Calm 29.76 1008 10 16 0.00 0.00
9:56 pm 21:56 Cloudy with Light Rain 40 4.4 38 3.3 93 93 WNW 7 11 29.75 1008 10 16 0.00 0.00
10:17 pm 22:17 Cloudy 39 4 36 2 87 87 W 9 15 29.77 1008 10 16 0.00 0.00
10:56 pm 22:56 Cloudy 39 3.9 35 1.7 86 86 W 13 20 29.75 1008 10 16 0.00 0.00
11:21 pm 23:21 Cloudy 39 4 36 2 87 87 W 10 17 29.77 1008 10 16 0.00 0.00
11:56 pm 23:56 Cloudy with Light Rain 39 3.9 37 2.8 93 93 WSW 13 20 29.75 1007 10 16 0.00 0.00

Powered by AerisWeather